User: anonymous   Login
Location: Oshawa
(43.9000°N, 78.8670°W)
Time: 03:56:45
(UTC-04:00)
Language:

CZ-4C R/B - Orbit

View from above orbital plane
View from above orbital plane
View from above satellite
View from above satellite

Ground track
Ground track

The orbit data is extracted from the following two-line orbital elements,

1 32290U 07055B   18175.86869111 +.00001427 +00000-0 +40221-4 0  9992
2 32290 097.5579 296.1856 0062706 241.5145 117.9774 15.36382170588935
Epoch (UTC): 24 June 2018 20:50:54
Eccentricity: 0.0062706
inclination: 97.5579°
perigee height: 414 km
apogee height: 499 km
right ascension of ascending node: 296.1856°
argument of perigee: 241.5145°
revolutions per day: 15.36382170
mean anomaly at epoch: 117.9774°
orbit number at epoch: 58893

The dashed part of the orbit path shows where the satellite is in the earth's shadow,  

DLR